Location: Guayaquil
(2.1667°S, 79.9000°W)
Time: 09:32:32
(UTC-05:00)

OTV 5 (USA 277) - Visible Passes

Search period start: 12 December 2018 00:00
Search period end: 22 December 2018 00:00
Orbit: 340 x 348 km, 54.5° (Epoch: 10 December)

Date Brightness Start Highest point End Pass type
(mag) Time Alt. Az. Time Alt. Az. Time Alt. Az.
15 Dec ? 19:44:18 10° SSW 19:46:04 28° SSE 19:46:04 28° SSE visible
16 Dec ? 20:08:09 10° WSW 20:09:33 19° W 20:09:33 19° W visible
17 Dec ? 18:56:46 10° SSW 18:59:28 35° ESE 19:01:36 14° ENE visible
18 Dec ? 19:20:30 10° WSW 19:23:00 26° WNW 19:25:10 12° N visible
